Weather History for Le Mars, IA

Change the Weather History Date:

Wednesday, February 5, 2014

  Actual Average Record
Temperature  
Mean Temperature 0 °F -  
Max Temperature 6 °F 26 °F 60 °F (2005)
Min Temperature -7 °F 7 °F -20 °F (1979)
Degree Days  
Heating Degree Days 66    
Moisture  
Dew Point -6 °F    
Average Humidity 72    
Maximum Humidity 84    
Minimum Humidity 56    
Precipitation  
Precipitation 0.00 in - - ()
Sea Level Pressure  
Sea Level Pressure 30.57 in    
Wind  
Wind Speed 15 mph (NNW)    
Max Wind Speed 24 mph    
Max Gust Speed 31 mph    
Visibility 8 miles    
Events Snow    
Averages and records for this station are not official NWS values.
T = Trace of Precipitation, MM = Missing Value Source: NWS Daily Summary

Daily Weather History Graph

Daily Weather History Graph

Search for Another Location

Airport:

Trip Planner

Search our weather history database for the weather conditions in past years. The results will help you decide how hot, cold, wet, or windy it might be!

Date:

Astronomy

Feb. 05, 2014 Rise Set
Actual Time 7:34 AM CST 5:43 PM CST
Civil Twilight 7:05 AM CST 6:13 PM CST
Nautical Twilight 6:31 AM CST 6:46 PM CST
Astronomical Twilight 5:58 AM CST 7:19 PM CST
Moon 10:40 AM CST (2/5) No Moon Set
Length of Visible Light 11h 07m
Length of Day
10h 08m
Waxing Crescent, 39% of the Moon is Illuminated
Feb 5
Waxing Crescent
Feb 6
First Quarter
Feb 14
Full
Feb 22
Last Quarter
Mar 1
New

Hourly Weather History & Observations

Time (CST) Temp. Windchill Dew Point Humidity Pressure Visibility Wind Dir Wind Speed Gust Speed Precip Events Conditions
12:15 AM 1.4 °F -17.6 °F -4.0 °F 78% 30.49 in 2.5 mi North 15.0 mph 24.2 mph N/A Snow Light Snow
12:35 AM 1.4 °F -18.8 °F -4.0 °F 78% 30.49 in 2.5 mi North 17.3 mph 28.8 mph N/A Snow Light Snow
12:55 AM 1.4 °F -21.4 °F -4.0 °F 78% 30.49 in 3.0 mi North 23.0 mph 31.1 mph N/A   Haze
1:15 AM 1.4 °F -19.9 °F -4.0 °F 78% 30.49 in 2.5 mi North 19.6 mph 28.8 mph N/A   Haze
1:35 AM 1.4 °F -19.4 °F -4.0 °F 78% 30.50 in 2.5 mi North 18.4 mph 28.8 mph N/A   Haze
1:55 AM 1.4 °F -21.0 °F -4.0 °F 78% 30.50 in 3.0 mi North 21.9 mph - N/A Snow Light Snow
2:15 AM 1.4 °F -20.5 °F -4.0 °F 78% 30.51 in 2.5 mi North 20.7 mph 27.6 mph N/A Snow Light Snow
2:35 AM 1.4 °F -21.9 °F -4.0 °F 78% 30.51 in 2.5 mi North 24.2 mph 29.9 mph N/A Snow Light Snow
2:55 AM 1.4 °F -19.4 °F -4.0 °F 78% 30.52 in 3.0 mi North 18.4 mph 28.8 mph N/A   Haze
3:15 AM 1.4 °F -19.4 °F -4.0 °F 78% 30.51 in 4.0 mi North 18.4 mph 28.8 mph N/A   Haze
3:35 AM 1.4 °F -19.9 °F -4.0 °F 78% 30.52 in 4.0 mi North 19.6 mph 27.6 mph N/A   Haze
3:55 AM 1.4 °F -19.4 °F -4.0 °F 78% 30.52 in 3.0 mi North 18.4 mph 29.9 mph N/A   Haze
4:15 AM 1.4 °F -18.8 °F -4.0 °F 78% 30.53 in 3.0 mi North 17.3 mph 25.3 mph N/A Snow Light Snow
4:35 AM 1.4 °F -19.9 °F -4.0 °F 78% 30.53 in 3.0 mi North 19.6 mph 27.6 mph N/A Snow Light Snow
4:55 AM 1.4 °F -18.2 °F -4.0 °F 78% 30.54 in 4.0 mi North 16.1 mph - N/A   Haze
5:15 AM 1.4 °F -18.8 °F -4.0 °F 78% 30.54 in 5.0 mi North 17.3 mph 24.2 mph N/A   Haze
5:35 AM 1.4 °F -17.6 °F -4.0 °F 78% 30.55 in 6.0 mi North 15.0 mph 21.9 mph N/A   Haze
5:55 AM 1.4 °F -17.6 °F -4.0 °F 78% 30.55 in 4.0 mi North 15.0 mph - N/A Snow Light Snow
6:15 AM 3.2 °F -13.1 °F -2.2 °F 78% 30.55 in 5.0 mi NNW 11.5 mph - N/A Snow Light Snow
6:35 AM 3.2 °F -14.6 °F -2.2 °F 78% 30.55 in 5.0 mi NNW 13.8 mph - N/A Snow Light Snow
6:55 AM 3.2 °F -15.9 °F -4.0 °F 72% 30.56 in 10.0 mi NNW 16.1 mph - N/A   Overcast
7:15 AM 3.2 °F -15.3 °F -4.0 °F 72% 30.56 in 10.0 mi NNW 15.0 mph - N/A   Overcast
7:35 AM 3.2 °F -13.9 °F -4.0 °F 72% 30.56 in 10.0 mi NNW 12.7 mph 21.9 mph N/A   Overcast
8:15 AM 3.2 °F -15.9 °F -4.0 °F 72% 30.57 in 10.0 mi NNW 16.1 mph - N/A   Partly Cloudy
8:35 AM 3.2 °F -13.9 °F -4.0 °F 72% 30.58 in 10.0 mi NNW 12.7 mph - N/A   Clear
8:55 AM 3.2 °F -15.3 °F -4.0 °F 72% 30.59 in 10.0 mi NNW 15.0 mph - N/A   Clear
9:15 AM 3.2 °F -15.9 °F -4.0 °F 72% 30.59 in 10.0 mi NNW 16.1 mph - N/A   Clear
9:35 AM 5.0 °F -12.3 °F -4.0 °F 66% 30.59 in 10.0 mi NNW 13.8 mph 21.9 mph N/A   Partly Cloudy
9:55 AM 3.2 °F -16.5 °F -5.8 °F 66% 30.59 in 10.0 mi NNW 17.3 mph 25.3 mph N/A   Mostly Cloudy
10:15 AM 5.0 °F -15.2 °F -4.0 °F 66% 30.61 in 10.0 mi NNW 19.6 mph - N/A   Mostly Cloudy
10:35 AM 5.0 °F -14.2 °F -4.0 °F 66% 30.61 in 10.0 mi NNW 17.3 mph 23.0 mph N/A   Mostly Cloudy
10:55 AM 5.0 °F -14.7 °F -4.0 °F 66% 30.61 in 10.0 mi NNW 18.4 mph - N/A   Overcast
11:15 AM 5.0 °F -14.7 °F -4.0 °F 66% 30.61 in 10.0 mi NNW 18.4 mph - N/A   Mostly Cloudy
11:35 AM 5.0 °F -15.2 °F -5.8 °F 61% 30.61 in 9.0 mi NNW 19.6 mph - N/A   Mostly Cloudy
11:55 AM 5.0 °F -14.7 °F -4.0 °F 66% 30.61 in 9.0 mi NW 18.4 mph 25.3 mph N/A   Overcast
12:15 PM 5.0 °F -14.7 °F -4.0 °F 66% 30.60 in 8.0 mi NNW 18.4 mph 24.2 mph N/A   Mostly Cloudy
12:35 PM 5.0 °F -14.2 °F -5.8 °F 61% 30.60 in 10.0 mi NNW 17.3 mph 24.2 mph N/A   Mostly Cloudy
12:55 PM 5.0 °F -14.7 °F -5.8 °F 61% 30.60 in 10.0 mi NNW 18.4 mph 26.5 mph N/A   Mostly Cloudy
1:15 PM 5.0 °F -14.2 °F -5.8 °F 61% 30.59 in 10.0 mi NNW 17.3 mph - N/A   Scattered Clouds
1:35 PM 6.8 °F -10.7 °F -4.0 °F 61% 30.58 in 10.0 mi NNW 15.0 mph 24.2 mph N/A   Mostly Cloudy
1:55 PM 5.0 °F -15.2 °F -4.0 °F 66% 30.57 in 9.0 mi NW 19.6 mph 25.3 mph N/A   Overcast
2:15 PM 5.0 °F -15.7 °F -5.8 °F 61% 30.57 in 10.0 mi NNW 20.7 mph 27.6 mph N/A   Mostly Cloudy
2:35 PM 5.0 °F -15.2 °F -5.8 °F 61% 30.57 in 10.0 mi NNW 19.6 mph 25.3 mph N/A   Mostly Cloudy
2:55 PM 5.0 °F -15.2 °F -4.0 °F 66% 30.57 in 9.0 mi NNW 19.6 mph - N/A   Mostly Cloudy
3:15 PM 6.8 °F -11.8 °F -5.8 °F 56% 30.58 in 10.0 mi NNW 17.3 mph 26.5 mph N/A   Mostly Cloudy
3:35 PM 6.8 °F -11.8 °F -4.0 °F 61% 30.59 in 10.0 mi NW 17.3 mph 24.2 mph N/A   Mostly Cloudy
3:55 PM 5.0 °F -13.6 °F -5.8 °F 61% 30.60 in 10.0 mi NW 16.1 mph 23.0 mph N/A   Mostly Cloudy
4:15 PM 5.0 °F -13.0 °F -5.8 °F 61% 30.60 in 10.0 mi NW 15.0 mph - N/A   Scattered Clouds
4:35 PM 5.0 °F -13.0 °F -5.8 °F 61% 30.60 in 10.0 mi NW 15.0 mph 23.0 mph N/A   Partly Cloudy
4:55 PM 5.0 °F -10.0 °F -4.0 °F 66% 30.60 in 10.0 mi NW 10.4 mph - N/A   Scattered Clouds
5:15 PM 5.0 °F -10.0 °F -4.0 °F 66% 30.60 in 10.0 mi NNW 10.4 mph - N/A   Partly Cloudy
5:35 PM 3.2 °F -11.3 °F -5.8 °F 66% 30.60 in 10.0 mi NNW 9.2 mph - N/A   Scattered Clouds
5:55 PM 1.4 °F -11.3 °F -5.8 °F 72% 30.61 in 10.0 mi NNW 6.9 mph - N/A   Scattered Clouds
6:15 PM 1.4 °F -12.5 °F -5.8 °F 72% 30.61 in 10.0 mi NNW 8.1 mph - N/A   Partly Cloudy
6:35 PM -0.4 °F -12.0 °F -5.8 °F 78% 30.61 in 10.0 mi NW 5.8 mph - N/A   Clear
6:55 PM -2.2 °F -12.5 °F -7.6 °F 78% 30.61 in 10.0 mi NW 4.6 mph - N/A   Clear
7:15 PM -2.2 °F -12.5 °F -7.6 °F 78% 30.61 in 10.0 mi NW 4.6 mph - N/A   Clear
7:35 PM -4.0 °F -16.3 °F -9.4 °F 78% 30.61 in 10.0 mi NW 5.8 mph - N/A   Clear
7:55 PM -4.0 °F -12.4 °F -9.4 °F 78% 30.61 in 10.0 mi NW 3.5 mph - N/A   Clear
8:15 PM -5.8 °F -19.9 °F -11.2 °F 77% 30.60 in 10.0 mi NW 6.9 mph - N/A   Clear
8:35 PM -5.8 °F -18.4 °F -11.2 °F 77% 30.60 in 10.0 mi NW 5.8 mph - N/A   Clear
8:55 PM -4.0 °F -12.4 °F -11.2 °F 71% 30.61 in 10.0 mi NW 3.5 mph - N/A   Clear
9:15 PM -5.8 °F -18.4 °F -11.2 °F 77% 30.60 in 10.0 mi NW 5.8 mph - N/A   Clear
9:35 PM -5.8 °F -18.4 °F -11.2 °F 77% 30.60 in 10.0 mi NW 5.8 mph - N/A   Clear
9:55 PM -5.8 °F -16.7 °F -11.2 °F 77% 30.60 in 10.0 mi NW 4.6 mph - N/A   Clear
10:15 PM -5.8 °F - -11.2 °F 77% 30.60 in 10.0 mi Calm Calm - N/A   Clear
10:35 PM -7.6 °F - -11.2 °F 84% 30.60 in 10.0 mi Calm Calm - N/A   Clear
10:55 PM -5.8 °F - -11.2 °F 77% 30.60 in 10.0 mi Calm Calm - N/A   Clear
11:15 PM -7.6 °F - -11.2 °F 84% 30.60 in 10.0 mi Calm Calm - N/A   Clear
11:35 PM -7.6 °F - -11.2 °F 84% 30.59 in 10.0 mi Calm Calm - N/A   Clear
11:55 PM -7.6 °F - -13.0 °F 77% 30.59 in 10.0 mi Calm Calm - N/A   Clear